AAL305 KPBI-KMSP

Flight info

Callsign AAL305
Flight time 3h 18m
Altitude 40000
Route TBIRD7 SMELZ Q116 VLKNN MSL STL MNOSO BLUEM5
Aircraft B789/H-SDE1E2E3FGHIJ2J3J4J5M1RWXY/LB1D1

Departure

Time 2026-04-26 13:14
Airport Palm Beach International Airport (KPBI)

Arrival

Time 2026-04-26 16:32
Airport Minneapolis–Saint Paul International Airport / Wold–Chamberlain Field (KMSP)
Time Latitude Longitude Altitude Speed Heading
2026-04-26 12:50 26.68685 -80.08907 32 ft 0 kts 273°
2026-04-26 13:02 26.68684 -80.08893 32 ft 2 kts 273°
2026-04-26 13:03 26.68685 -80.08873 32 ft 3 kts 257°
2026-04-26 13:03 26.68693 -80.08852 32 ft 3 kts 235°
2026-04-26 13:03 26.68707 -80.08836 32 ft 3 kts 215°
2026-04-26 13:03 26.68726 -80.08825 32 ft 3 kts 195°
2026-04-26 13:04 26.68745 -80.08822 32 ft 1 kts 183°
2026-04-26 13:05 26.68744 -80.08822 32 ft 0 kts 183°
2026-04-26 13:07 26.68736 -80.08823 32 ft 5 kts 180°
2026-04-26 13:07 26.68648 -80.08802 32 ft 17 kts 155°
2026-04-26 13:08 26.68538 -80.08775 32 ft 16 kts 181°
2026-04-26 13:08 26.68424 -80.08812 32 ft 19 kts 209°
2026-04-26 13:08 26.68351 -80.08901 32 ft 18 kts 263°
2026-04-26 13:08 26.68350 -80.09037 32 ft 18 kts 272°
2026-04-26 13:09 26.68357 -80.09169 32 ft 18 kts 273°
2026-04-26 13:09 26.68363 -80.09306 32 ft 16 kts 272°
2026-04-26 13:09 26.68368 -80.09440 32 ft 16 kts 272°
2026-04-26 13:09 26.68374 -80.09576 32 ft 18 kts 272°
2026-04-26 13:10 26.68380 -80.09713 32 ft 19 kts 273°
2026-04-26 13:10 26.68387 -80.09847 32 ft 16 kts 273°
2026-04-26 13:10 26.68392 -80.09981 32 ft 17 kts 272°
2026-04-26 13:10 26.68398 -80.10116 32 ft 18 kts 272°
2026-04-26 13:11 26.68403 -80.10245 32 ft 18 kts 272°
2026-04-26 13:11 26.68408 -80.10349 32 ft 7 kts 272°
2026-04-26 13:11 26.68384 -80.10438 32 ft 18 kts 215°
2026-04-26 13:11 26.68299 -80.10432 32 ft 12 kts 111°
2026-04-26 13:12 26.68298 -80.10377 32 ft 0 kts 90°
2026-04-26 13:13 26.68298 -80.10357 32 ft 20 kts 90°
2026-04-26 13:13 26.68273 -80.09799 32 ft 121 kts 92°
2026-04-26 13:13 26.68223 -80.08549 110 ft 190 kts 92°
2026-04-26 13:14 26.68162 -80.07075 1231 ft 185 kts 92°
2026-04-26 13:14 26.68155 -80.06128 2103 ft 184 kts 88°
2026-04-26 13:14 26.68548 -80.04725 2869 ft 195 kts 69°
2026-04-26 13:14 26.69110 -80.03461 3663 ft 206 kts 64°
2026-04-26 13:15 26.69783 -80.01975 4406 ft 224 kts 63°
2026-04-26 13:15 26.70513 -80.00355 4990 ft 243 kts 64°
2026-04-26 13:15 26.71288 -79.98632 5555 ft 251 kts 63°
2026-04-26 13:15 26.72124 -79.97307 5894 ft 255 kts 51°
2026-04-26 13:16 26.73392 -79.96381 6289 ft 259 kts 30°
2026-04-26 13:16 26.75189 -79.96056 6877 ft 266 kts
2026-04-26 13:16 26.77081 -79.96110 7484 ft 274 kts
2026-04-26 13:16 26.78892 -79.96692 7891 ft 282 kts 339°
2026-04-26 13:17 26.81277 -80.00194 8956 ft 295 kts 290°
2026-04-26 13:17 26.81421 -80.02492 9505 ft 300 kts 269°
2026-04-26 13:18 26.81507 -80.07083 10561 ft 298 kts 289°
2026-04-26 13:18 26.82400 -80.09177 11161 ft 303 kts 298°
2026-04-26 13:18 26.84199 -80.13628 12372 ft 325 kts 294°
2026-04-26 13:19 26.85025 -80.16004 13061 ft 331 kts 292°
2026-04-26 13:19 26.85829 -80.18454 13776 ft 336 kts 291°
2026-04-26 13:19 26.86615 -80.20926 14482 ft 339 kts 291°
2026-04-26 13:19 26.87397 -80.23430 15176 ft 342 kts 291°
2026-04-26 13:20 26.88183 -80.25970 15870 ft 344 kts 290°
2026-04-26 13:20 26.88967 -80.28512 16542 ft 346 kts 290°
2026-04-26 13:20 26.89754 -80.31068 17189 ft 348 kts 290°
2026-04-26 13:20 26.90527 -80.33582 17774 ft 351 kts 291°
2026-04-26 13:21 26.91576 -80.36132 18252 ft 355 kts 302°
2026-04-26 13:21 26.93289 -80.38130 18687 ft 358 kts 322°
2026-04-26 13:21 26.95527 -80.39312 19325 ft 356 kts 340°
2026-04-26 13:21 26.97892 -80.39990 20071 ft 352 kts 345°
2026-04-26 13:22 27.00293 -80.40703 20444 ft 359 kts 343°
2026-04-26 13:22 27.02694 -80.41530 20922 ft 362 kts 341°
2026-04-26 13:22 27.05093 -80.42450 21342 ft 367 kts 340°
2026-04-26 13:22 27.07507 -80.43439 21823 ft 370 kts 339°
2026-04-26 13:23 27.09927 -80.44465 22308 ft 373 kts 338°
2026-04-26 13:23 27.12356 -80.45513 22826 ft 374 kts 338°
2026-04-26 13:23 27.14791 -80.46574 23298 ft 376 kts 338°
2026-04-26 13:23 27.17229 -80.47672 23739 ft 379 kts 337°
2026-04-26 13:24 27.19680 -80.48797 24169 ft 382 kts 336°
2026-04-26 13:24 27.22118 -80.49920 24565 ft 385 kts 336°
2026-04-26 13:24 27.24603 -80.51069 25007 ft 387 kts 336°
2026-04-26 13:24 27.27098 -80.52220 25471 ft 388 kts 336°
2026-04-26 13:25 27.29610 -80.53378 25933 ft 389 kts 336°
2026-04-26 13:25 27.32102 -80.54579 26346 ft 391 kts 335°
2026-04-26 13:25 27.34601 -80.55824 26743 ft 393 kts 335°
2026-04-26 13:25 27.37099 -80.57084 27132 ft 395 kts 334°
2026-04-26 13:26 27.39619 -80.58362 27504 ft 398 kts 334°
2026-04-26 13:26 27.42153 -80.59650 27884 ft 400 kts 334°
2026-04-26 13:26 27.44693 -80.60942 28289 ft 401 kts 334°
2026-04-26 13:26 27.47237 -80.62236 28688 ft 402 kts 334°
2026-04-26 13:27 27.49697 -80.63750 29007 ft 404 kts 327°
2026-04-26 13:27 27.51994 -80.65558 29435 ft 403 kts 323°
2026-04-26 13:27 27.54262 -80.67457 29738 ft 406 kts 322°
2026-04-26 13:27 27.56465 -80.69400 30084 ft 408 kts 321°
2026-04-26 13:28 27.58690 -80.71459 30410 ft 410 kts 320°
2026-04-26 13:28 27.60870 -80.73541 30759 ft 411 kts 319°
2026-04-26 13:28 27.63012 -80.75625 31115 ft 412 kts 319°
2026-04-26 13:28 27.65174 -80.77749 31464 ft 414 kts 319°
2026-04-26 13:29 27.67349 -80.79896 31780 ft 416 kts 319°
2026-04-26 13:29 27.68796 -80.81327 31988 ft 417 kts 319°
2026-04-26 13:29 27.71720 -80.84224 32405 ft 419 kts 319°
2026-04-26 13:29 27.73901 -80.86387 32719 ft 421 kts 319°
2026-04-26 13:30 27.76113 -80.88582 33030 ft 422 kts 319°
2026-04-26 13:30 27.78316 -80.90769 33343 ft 423 kts 319°
2026-04-26 13:30 27.80539 -80.92978 33652 ft 425 kts 319°
2026-04-26 13:30 27.82793 -80.95163 33942 ft 427 kts 321°
2026-04-26 13:31 27.85163 -80.97183 34230 ft 429 kts 323°
2026-04-26 13:31 27.87574 -80.99132 34528 ft 430 kts 324°
2026-04-26 13:31 27.90034 -81.01093 34818 ft 432 kts 324°
2026-04-26 13:31 27.92485 -81.03049 35113 ft 433 kts 324°
2026-04-26 13:32 27.94963 -81.05035 35417 ft 435 kts 324°
2026-04-26 13:32 27.97438 -81.07026 35718 ft 436 kts 323°
2026-04-26 13:32 27.99903 -81.09015 36032 ft 437 kts 323°
2026-04-26 13:32 28.02388 -81.11027 36260 ft 440 kts 324°
2026-04-26 13:33 28.04891 -81.13054 36477 ft 443 kts 324°
2026-04-26 13:33 28.07397 -81.15087 36739 ft 445 kts 323°
2026-04-26 13:33 28.09718 -81.17412 36940 ft 447 kts 314°
2026-04-26 13:33 28.11546 -81.20208 37259 ft 448 kts 302°
2026-04-26 13:34 28.12844 -81.23411 37644 ft 448 kts 291°
2026-04-26 13:34 28.13539 -81.26862 38026 ft 450 kts 281°
2026-04-26 13:34 28.13598 -81.30424 38410 ft 453 kts 270°
2026-04-26 13:34 28.13364 -81.32764 38728 ft 451 kts 266°
2026-04-26 13:35 28.12790 -81.37413 39278 ft 447 kts 266°
2026-04-26 13:35 28.12413 -81.40936 39573 ft 445 kts 267°
2026-04-26 13:35 28.12114 -81.44420 39838 ft 444 kts 268°
2026-04-26 13:35 28.11866 -81.47907 40089 ft 443 kts 269°
2026-04-26 13:36 28.11652 -81.51318 40265 ft 443 kts 269°
2026-04-26 13:36 28.11255 -81.58380 40318 ft 450 kts 270°
2026-04-26 13:37 28.10864 -81.65521 40328 ft 459 kts 270°
2026-04-26 13:37 28.10463 -81.72784 40311 ft 462 kts 270°
2026-04-26 13:38 28.10061 -81.80038 40315 ft 462 kts 270°
2026-04-26 13:38 28.09657 -81.87316 40332 ft 463 kts 270°
2026-04-26 13:39 28.09245 -81.94580 40306 ft 463 kts 269°
2026-04-26 13:39 28.08822 -82.01845 40324 ft 463 kts 270°
2026-04-26 13:40 28.09358 -82.09007 40275 ft 454 kts 287°
2026-04-26 13:40 28.12305 -82.15233 40309 ft 453 kts 308°
2026-04-26 13:40 28.14566 -82.17709 40320 ft 456 kts 319°
2026-04-26 13:41 28.17252 -82.19649 40350 ft 459 kts 328°
2026-04-26 13:41 28.22899 -82.23025 40353 ft 459 kts 328°
2026-04-26 13:42 28.28309 -82.26801 40334 ft 457 kts 324°
2026-04-26 13:42 28.33563 -82.30845 40319 ft 456 kts 323°
2026-04-26 13:43 28.38731 -82.34966 40322 ft 456 kts 322°
2026-04-26 13:43 28.43905 -82.39132 40322 ft 456 kts 322°
2026-04-26 13:44 28.49124 -82.43347 40312 ft 457 kts 322°
2026-04-26 13:44 28.54293 -82.47526 40327 ft 457 kts 322°
2026-04-26 13:45 28.59499 -82.51740 40315 ft 457 kts 322°
2026-04-26 13:45 28.64676 -82.55935 40319 ft 456 kts 322°
2026-04-26 13:46 28.69857 -82.60140 40326 ft 458 kts 322°
2026-04-26 13:46 28.74995 -82.64315 40315 ft 457 kts 322°
2026-04-26 13:47 28.80183 -82.68535 40323 ft 457 kts 322°
2026-04-26 13:47 28.85362 -82.72753 40321 ft 457 kts 322°
2026-04-26 13:48 28.90540 -82.76977 40312 ft 458 kts 322°
2026-04-26 13:48 28.95714 -82.81201 40327 ft 456 kts 322°
2026-04-26 13:49 29.00875 -82.85420 40316 ft 457 kts 322°
2026-04-26 13:49 29.06044 -82.89648 40322 ft 456 kts 322°
2026-04-26 13:50 29.11177 -82.93839 40324 ft 456 kts 322°
2026-04-26 13:50 29.16366 -82.98077 40314 ft 457 kts 322°
2026-04-26 13:51 29.21540 -83.02305 40326 ft 457 kts 322°
2026-04-26 13:51 29.26715 -83.06541 40316 ft 457 kts 322°
2026-04-26 13:52 29.31884 -83.10777 40314 ft 457 kts 322°
2026-04-26 13:52 29.37059 -83.15024 40313 ft 457 kts 322°
2026-04-26 13:53 29.42191 -83.19241 40304 ft 457 kts 322°
2026-04-26 13:53 29.47356 -83.23491 40317 ft 457 kts 322°
2026-04-26 13:54 29.52525 -83.27749 40306 ft 457 kts 322°
2026-04-26 13:54 29.57679 -83.32000 40309 ft 456 kts 322°
2026-04-26 13:55 29.64535 -83.37663 40309 ft 458 kts 322°
2026-04-26 13:56 29.73145 -83.44790 40318 ft 457 kts 322°
2026-04-26 13:56 29.78335 -83.49093 40310 ft 457 kts 322°
2026-04-26 13:57 29.83466 -83.53352 40312 ft 457 kts 322°
2026-04-26 13:57 29.88632 -83.57645 40319 ft 457 kts 322°
2026-04-26 13:58 29.93755 -83.61906 40308 ft 457 kts 322°
2026-04-26 13:58 29.98952 -83.66234 40320 ft 457 kts 322°
2026-04-26 13:59 30.03233 -83.69805 40319 ft 456 kts 322°
2026-04-26 13:59 30.09216 -83.74799 40313 ft 457 kts 322°
2026-04-26 14:00 30.18651 -83.82694 40316 ft 457 kts 322°
2026-04-26 14:01 30.23779 -83.86995 40317 ft 457 kts 322°
2026-04-26 14:01 30.28905 -83.91302 40329 ft 456 kts 322°
2026-04-26 14:02 30.34077 -83.95653 40323 ft 456 kts 322°
2026-04-26 14:02 30.39201 -83.99969 40322 ft 456 kts 322°
2026-04-26 14:03 30.44349 -84.04310 40336 ft 457 kts 322°
2026-04-26 14:03 30.49451 -84.08620 40329 ft 456 kts 322°
2026-04-26 14:04 30.54614 -84.12985 40327 ft 456 kts 322°
2026-04-26 14:04 30.59737 -84.17323 40339 ft 456 kts 322°
2026-04-26 14:05 30.64826 -84.21639 40327 ft 455 kts 322°
2026-04-26 14:05 30.69925 -84.25968 40332 ft 454 kts 322°
2026-04-26 14:06 30.75043 -84.30320 40347 ft 455 kts 322°
2026-04-26 14:06 30.80164 -84.34679 40349 ft 454 kts 322°
2026-04-26 14:07 30.85257 -84.39021 40331 ft 454 kts 322°
2026-04-26 14:07 30.90317 -84.43341 40342 ft 454 kts 322°
2026-04-26 14:08 30.95413 -84.47697 40338 ft 454 kts 322°
2026-04-26 14:08 31.00501 -84.52051 40332 ft 453 kts 322°
2026-04-26 14:09 31.05582 -84.56406 40344 ft 454 kts 322°
2026-04-26 14:09 31.10675 -84.60778 40333 ft 453 kts 322°
2026-04-26 14:10 31.15686 -84.65085 40337 ft 453 kts 322°
2026-04-26 14:10 31.20819 -84.69502 40334 ft 452 kts 322°
2026-04-26 14:11 31.28382 -84.76021 40334 ft 452 kts 322°
2026-04-26 14:11 31.33449 -84.80397 40331 ft 452 kts 322°
2026-04-26 14:12 31.38515 -84.84778 40324 ft 452 kts 322°
2026-04-26 14:12 31.43570 -84.89156 40336 ft 452 kts 322°
2026-04-26 14:13 31.51111 -84.95697 40323 ft 452 kts 322°
2026-04-26 14:14 31.56180 -85.00102 40336 ft 453 kts 322°
2026-04-26 14:14 31.61225 -85.04508 40329 ft 453 kts 322°
2026-04-26 14:15 31.66282 -85.08937 40328 ft 453 kts 322°
2026-04-26 14:15 31.71300 -85.13336 40334 ft 452 kts 321°
2026-04-26 14:16 31.76347 -85.17770 40322 ft 452 kts 321°
2026-04-26 14:16 31.81392 -85.22207 40336 ft 453 kts 321°
2026-04-26 14:17 31.86422 -85.26636 40329 ft 453 kts 321°
2026-04-26 14:17 31.91476 -85.31093 40327 ft 453 kts 321°
2026-04-26 14:18 31.96529 -85.35555 40336 ft 453 kts 321°
2026-04-26 14:18 32.01550 -85.39996 40316 ft 454 kts 321°
2026-04-26 14:19 32.06626 -85.44490 40320 ft 453 kts 321°
2026-04-26 14:19 32.11626 -85.48924 40308 ft 453 kts 321°
2026-04-26 14:20 32.16665 -85.53399 40324 ft 453 kts 321°
2026-04-26 14:20 32.21685 -85.57864 40324 ft 453 kts 321°
2026-04-26 14:21 32.26723 -85.62351 40326 ft 453 kts 321°
2026-04-26 14:21 32.31765 -85.66847 40331 ft 453 kts 321°
2026-04-26 14:22 32.36763 -85.71312 40321 ft 453 kts 321°
2026-04-26 14:22 32.41811 -85.75827 40326 ft 453 kts 321°
2026-04-26 14:23 32.46837 -85.80329 40310 ft 453 kts 321°
2026-04-26 14:23 32.51863 -85.84837 40318 ft 452 kts 321°
2026-04-26 14:24 32.56854 -85.89321 40318 ft 453 kts 321°
2026-04-26 14:24 32.61871 -85.93834 40310 ft 452 kts 321°
2026-04-26 14:25 32.66874 -85.98340 40325 ft 452 kts 321°
2026-04-26 14:25 32.71861 -86.02838 40326 ft 452 kts 321°
2026-04-26 14:26 32.76816 -86.07315 40321 ft 451 kts 321°
2026-04-26 14:26 32.81790 -86.11816 40331 ft 452 kts 321°
2026-04-26 14:27 32.86785 -86.16342 40320 ft 451 kts 321°
2026-04-26 14:27 32.91768 -86.20864 40335 ft 451 kts 321°
2026-04-26 14:28 32.96375 -86.25050 40326 ft 451 kts 321°
2026-04-26 14:28 33.00943 -86.29207 40332 ft 451 kts 321°
2026-04-26 14:29 33.05652 -86.33496 40342 ft 450 kts 321°
2026-04-26 14:29 33.10613 -86.38023 40329 ft 450 kts 321°
2026-04-26 14:30 33.15595 -86.42576 40343 ft 450 kts 321°
2026-04-26 14:30 33.20546 -86.47106 40334 ft 450 kts 321°
2026-04-26 14:31 33.25368 -86.51525 40327 ft 450 kts 320°
2026-04-26 14:31 33.30381 -86.56126 40339 ft 450 kts 320°
2026-04-26 14:32 33.35298 -86.60645 40328 ft 449 kts 320°
2026-04-26 14:32 33.40299 -86.65248 40333 ft 449 kts 320°
2026-04-26 14:33 33.45247 -86.69809 40338 ft 449 kts 320°
2026-04-26 14:33 33.50194 -86.74377 40332 ft 450 kts 320°
2026-04-26 14:34 33.55130 -86.78941 40343 ft 450 kts 320°
2026-04-26 14:34 33.60097 -86.83539 40336 ft 450 kts 320°
2026-04-26 14:35 33.65038 -86.88101 40329 ft 447 kts 322°
2026-04-26 14:35 33.70464 -86.91819 40342 ft 450 kts 330°
2026-04-26 14:36 33.76115 -86.95098 40307 ft 450 kts 332°
2026-04-26 14:36 33.81757 -86.98285 40321 ft 451 kts 332°
2026-04-26 14:37 33.87421 -87.01484 40322 ft 450 kts 332°
2026-04-26 14:37 33.93101 -87.04700 40324 ft 451 kts 332°
2026-04-26 14:38 33.98707 -87.07881 40316 ft 450 kts 332°
2026-04-26 14:38 34.04375 -87.11100 40328 ft 449 kts 332°
2026-04-26 14:39 34.10017 -87.14311 40317 ft 449 kts 332°
2026-04-26 14:39 34.15662 -87.17529 40324 ft 449 kts 332°
2026-04-26 14:40 34.21326 -87.20762 40326 ft 449 kts 332°
2026-04-26 14:40 34.26917 -87.23958 40317 ft 449 kts 332°
2026-04-26 14:41 34.32551 -87.27183 40329 ft 449 kts 332°
2026-04-26 14:41 34.38200 -87.30422 40328 ft 449 kts 332°
2026-04-26 14:42 34.43843 -87.33662 40319 ft 448 kts 332°
2026-04-26 14:42 34.49488 -87.36908 40332 ft 449 kts 332°
2026-04-26 14:43 34.55110 -87.40146 40319 ft 449 kts 331°
2026-04-26 14:43 34.60736 -87.43391 40325 ft 448 kts 331°
2026-04-26 14:44 34.66394 -87.46659 40326 ft 449 kts 331°
2026-04-26 14:44 34.71956 -87.50049 40312 ft 447 kts 329°
2026-04-26 14:45 34.77404 -87.53685 40300 ft 446 kts 328°
2026-04-26 14:45 34.81944 -87.56764 40299 ft 446 kts 328°
2026-04-26 14:46 34.87364 -87.60450 40309 ft 446 kts 328°
2026-04-26 14:46 34.92650 -87.64048 40292 ft 446 kts 328°
2026-04-26 14:47 34.98068 -87.67740 40301 ft 446 kts 328°
2026-04-26 14:47 35.03446 -87.71409 40292 ft 446 kts 328°
2026-04-26 14:48 35.08788 -87.75060 40288 ft 445 kts 328°
2026-04-26 14:48 35.14177 -87.78749 40297 ft 445 kts 328°
2026-04-26 14:49 35.19663 -87.82509 40278 ft 444 kts 328°
2026-04-26 14:49 35.25042 -87.86203 40287 ft 444 kts 328°
2026-04-26 14:50 35.30432 -87.89909 40275 ft 444 kts 328°
2026-04-26 14:50 35.35819 -87.93619 40271 ft 444 kts 328°
2026-04-26 14:51 35.41202 -87.97332 40284 ft 444 kts 328°
2026-04-26 14:51 35.46576 -88.01044 40275 ft 444 kts 328°
2026-04-26 14:52 35.51960 -88.04770 40274 ft 444 kts 327°
2026-04-26 14:52 35.57344 -88.08501 40282 ft 444 kts 327°
2026-04-26 14:53 35.62735 -88.12243 40266 ft 444 kts 327°
2026-04-26 14:53 35.68119 -88.15984 40273 ft 443 kts 327°
2026-04-26 14:54 35.73480 -88.19718 40273 ft 443 kts 327°
2026-04-26 14:54 35.78843 -88.23457 40262 ft 442 kts 327°
2026-04-26 14:55 35.84176 -88.27182 40273 ft 443 kts 327°
2026-04-26 14:55 35.89533 -88.30929 40263 ft 443 kts 327°
2026-04-26 14:56 35.94880 -88.34675 40260 ft 443 kts 327°
2026-04-26 14:56 36.00261 -88.38451 40267 ft 443 kts 327°
2026-04-26 14:57 36.05573 -88.42184 40252 ft 441 kts 327°
2026-04-26 14:57 36.10911 -88.45942 40262 ft 442 kts 327°
2026-04-26 14:58 36.16261 -88.49714 40261 ft 442 kts 327°
2026-04-26 14:58 36.21600 -88.53484 40256 ft 442 kts 327°
2026-04-26 14:59 36.26942 -88.57262 40271 ft 441 kts 327°
2026-04-26 14:59 36.32273 -88.61039 40258 ft 441 kts 327°
2026-04-26 15:00 36.37600 -88.64818 40265 ft 441 kts 327°
2026-04-26 15:00 36.42941 -88.68614 40267 ft 442 kts 327°
2026-04-26 15:01 36.48227 -88.72376 40253 ft 440 kts 327°
2026-04-26 15:01 36.53543 -88.76166 40265 ft 441 kts 327°
2026-04-26 15:02 36.58859 -88.79963 40260 ft 441 kts 327°
2026-04-26 15:02 36.64186 -88.83773 40256 ft 440 kts 327°
2026-04-26 15:03 36.69501 -88.87579 40254 ft 440 kts 327°
2026-04-26 15:03 36.74812 -88.91390 40263 ft 440 kts 327°
2026-04-26 15:04 36.80120 -88.95205 40254 ft 440 kts 327°
2026-04-26 15:04 36.85423 -88.99023 40254 ft 440 kts 327°
2026-04-26 15:05 36.90729 -89.02849 40259 ft 440 kts 327°
2026-04-26 15:05 36.95997 -89.06653 40247 ft 440 kts 327°
2026-04-26 15:06 37.01287 -89.10479 40258 ft 439 kts 326°
2026-04-26 15:06 37.06575 -89.14310 40261 ft 439 kts 326°
2026-04-26 15:07 37.14502 -89.20066 40258 ft 439 kts 326°
2026-04-26 15:07 37.19776 -89.23902 40261 ft 438 kts 326°
2026-04-26 15:08 37.25052 -89.27746 40246 ft 438 kts 326°
2026-04-26 15:08 37.30260 -89.31548 40247 ft 437 kts 326°
2026-04-26 15:09 37.35546 -89.35412 40245 ft 438 kts 326°
2026-04-26 15:09 37.40815 -89.39270 40235 ft 437 kts 326°
2026-04-26 15:10 37.45176 -89.42464 40228 ft 434 kts 326°
2026-04-26 15:10 37.51218 -89.46907 40245 ft 433 kts 326°
2026-04-26 15:11 37.56403 -89.50727 40233 ft 431 kts 326°
2026-04-26 15:11 37.61581 -89.54553 40248 ft 433 kts 326°
2026-04-26 15:12 37.66760 -89.58372 40240 ft 433 kts 326°
2026-04-26 15:12 37.71982 -89.62227 40227 ft 433 kts 326°
2026-04-26 15:13 37.77164 -89.66060 40241 ft 432 kts 326°
2026-04-26 15:13 37.82355 -89.69913 40234 ft 432 kts 326°
2026-04-26 15:14 37.87542 -89.73759 40214 ft 430 kts 326°
2026-04-26 15:14 37.92634 -89.77557 40228 ft 424 kts 326°
2026-04-26 15:15 37.97726 -89.81360 40235 ft 422 kts 326°
2026-04-26 15:15 38.02790 -89.85139 40219 ft 419 kts 326°
2026-04-26 15:16 38.07776 -89.88863 40221 ft 415 kts 326°
2026-04-26 15:16 38.12745 -89.92580 40223 ft 415 kts 326°
2026-04-26 15:17 38.16727 -89.95570 40235 ft 413 kts 326°
2026-04-26 15:17 38.22479 -89.99893 40216 ft 415 kts 326°
2026-04-26 15:18 38.27456 -90.03636 40202 ft 415 kts 326°
2026-04-26 15:18 38.32414 -90.07386 40211 ft 416 kts 326°
2026-04-26 15:19 38.37389 -90.11150 40195 ft 414 kts 325°
2026-04-26 15:19 38.42345 -90.14902 40196 ft 416 kts 325°
2026-04-26 15:20 38.47329 -90.18673 40193 ft 414 kts 325°
2026-04-26 15:20 38.52281 -90.22420 40197 ft 415 kts 325°
2026-04-26 15:21 38.57249 -90.26189 40182 ft 415 kts 325°
2026-04-26 15:21 38.62185 -90.29949 40203 ft 415 kts 325°
2026-04-26 15:22 38.67140 -90.33731 40182 ft 414 kts 324°
2026-04-26 15:22 38.72082 -90.37500 40187 ft 415 kts 324°
2026-04-26 15:23 38.77069 -90.41305 40195 ft 416 kts 324°
2026-04-26 15:23 38.82036 -90.45117 40176 ft 415 kts 324°
2026-04-26 15:24 38.87092 -90.48723 40163 ft 418 kts 329°
2026-04-26 15:24 38.92414 -90.51778 40163 ft 420 kts 330°
2026-04-26 15:25 38.96872 -90.54259 40152 ft 419 kts 331°
2026-04-26 15:25 39.03095 -90.57727 40165 ft 420 kts 330°
2026-04-26 15:26 39.08453 -90.60724 40157 ft 419 kts 330°
2026-04-26 15:26 39.13796 -90.63719 40152 ft 418 kts 330°
2026-04-26 15:27 39.19143 -90.66723 40164 ft 420 kts 330°
2026-04-26 15:27 39.24455 -90.69711 40150 ft 418 kts 330°
2026-04-26 15:28 39.29790 -90.72719 40157 ft 419 kts 330°
2026-04-26 15:28 39.35130 -90.75734 40156 ft 419 kts 330°
2026-04-26 15:29 39.40479 -90.78759 40146 ft 419 kts 330°
2026-04-26 15:30 39.51170 -90.84820 40141 ft 419 kts 330°
2026-04-26 15:30 39.56487 -90.87842 40150 ft 420 kts 330°
2026-04-26 15:31 39.64506 -90.92408 40142 ft 419 kts 330°
2026-04-26 15:32 39.70737 -90.95966 40148 ft 420 kts 329°
2026-04-26 15:32 39.76982 -90.99538 40136 ft 420 kts 329°
2026-04-26 15:33 39.82330 -91.02603 40121 ft 421 kts 329°
2026-04-26 15:33 39.87694 -91.05681 40115 ft 421 kts 329°
2026-04-26 15:34 39.93052 -91.08763 40114 ft 422 kts 329°
2026-04-26 15:34 39.98424 -91.11857 40105 ft 422 kts 329°
2026-04-26 15:35 40.03807 -91.14960 40111 ft 423 kts 329°
2026-04-26 15:35 40.09190 -91.18072 40113 ft 423 kts 329°
2026-04-26 15:36 40.14536 -91.21169 40099 ft 423 kts 329°
2026-04-26 15:36 40.19886 -91.24272 40103 ft 424 kts 329°
2026-04-26 15:37 40.25330 -91.27435 40094 ft 424 kts 329°
2026-04-26 15:37 40.30713 -91.30568 40082 ft 422 kts 329°
2026-04-26 15:38 40.36102 -91.33710 40090 ft 424 kts 329°
2026-04-26 15:38 40.41490 -91.36857 40077 ft 424 kts 329°
2026-04-26 15:39 40.46870 -91.40005 40077 ft 423 kts 329°
2026-04-26 15:39 40.51339 -91.42624 40086 ft 424 kts 328°
2026-04-26 15:40 40.57593 -91.46294 40071 ft 423 kts 328°
2026-04-26 15:40 40.62991 -91.49470 40081 ft 424 kts 328°
2026-04-26 15:41 40.68362 -91.52636 40079 ft 424 kts 328°
2026-04-26 15:41 40.73752 -91.55817 40067 ft 425 kts 328°
2026-04-26 15:42 40.79127 -91.58994 40072 ft 424 kts 328°
2026-04-26 15:42 40.84538 -91.62200 40067 ft 424 kts 328°
2026-04-26 15:43 40.89936 -91.65404 40062 ft 425 kts 328°
2026-04-26 15:44 40.98020 -91.70212 40067 ft 424 kts 328°
2026-04-26 15:44 41.06082 -91.75020 40043 ft 424 kts 328°
2026-04-26 15:45 41.14113 -91.79822 40046 ft 424 kts 327°
2026-04-26 15:46 41.22198 -91.84670 40035 ft 424 kts 327°
2026-04-26 15:46 41.26705 -91.87380 40044 ft 425 kts 327°
2026-04-26 15:47 41.35651 -91.92767 40034 ft 424 kts 327°
2026-04-26 15:48 41.41024 -91.96012 40046 ft 424 kts 327°
2026-04-26 15:48 41.46414 -91.99272 40194 ft 425 kts 327°
2026-04-26 15:48 41.49137 -92.00926 40066 ft 433 kts 327°
2026-04-26 15:49 41.51894 -92.02602 40070 ft 438 kts 327°
2026-04-26 15:49 41.57510 -92.06017 40055 ft 449 kts 327°
2026-04-26 15:50 41.63238 -92.09497 40031 ft 452 kts 327°
2026-04-26 15:50 41.68929 -92.12958 40027 ft 452 kts 327°
2026-04-26 15:51 41.74635 -92.16440 40035 ft 452 kts 327°
2026-04-26 15:51 41.80381 -92.19955 40019 ft 452 kts 327°
2026-04-26 15:52 41.86108 -92.23466 40015 ft 452 kts 327°
2026-04-26 15:52 41.91830 -92.26981 40022 ft 452 kts 327°
2026-04-26 15:53 41.97552 -92.30503 40008 ft 452 kts 327°
2026-04-26 15:53 42.03262 -92.34024 39715 ft 451 kts 327°
2026-04-26 15:53 42.06081 -92.35757 39271 ft 439 kts 326°
2026-04-26 15:54 42.08831 -92.37445 38974 ft 432 kts 326°
2026-04-26 15:54 42.11538 -92.39125 38678 ft 435 kts 326°
2026-04-26 15:54 42.14300 -92.40846 38383 ft 438 kts 326°
2026-04-26 15:54 42.17071 -92.42570 38093 ft 438 kts 326°
2026-04-26 15:55 42.19838 -92.44288 38054 ft 435 kts 326°
2026-04-26 15:55 42.22587 -92.45995 37794 ft 438 kts 326°
2026-04-26 15:55 42.25357 -92.47722 37528 ft 441 kts 326°
2026-04-26 15:55 42.28160 -92.49471 37222 ft 445 kts 327°
2026-04-26 15:56 42.30982 -92.51231 36924 ft 448 kts 327°
2026-04-26 15:56 42.33814 -92.52996 36600 ft 447 kts 327°
2026-04-26 15:56 42.36639 -92.54756 36271 ft 446 kts 327°
2026-04-26 15:56 42.39449 -92.56530 36037 ft 445 kts 326°
2026-04-26 15:57 42.42239 -92.58309 36047 ft 442 kts 326°
2026-04-26 15:57 42.47810 -92.61888 35661 ft 448 kts 326°
2026-04-26 15:57 42.49683 -92.63102 35403 ft 452 kts 326°
2026-04-26 15:58 42.53513 -92.65583 34952 ft 458 kts 326°
2026-04-26 15:58 42.56399 -92.67446 34770 ft 458 kts 327°
2026-04-26 15:58 42.59260 -92.69290 34777 ft 455 kts 327°
2026-04-26 15:59 42.64963 -92.72970 34760 ft 451 kts 326°
2026-04-26 15:59 42.70592 -92.76620 34882 ft 455 kts 326°
2026-04-26 16:00 42.76402 -92.80411 34888 ft 471 kts 327°
2026-04-26 16:00 42.82385 -92.84338 34881 ft 480 kts 327°
2026-04-26 16:01 42.88403 -92.88296 34868 ft 481 kts 327°
2026-04-26 16:01 42.94428 -92.92271 34857 ft 481 kts 327°
2026-04-26 16:01 42.97416 -92.94242 34793 ft 470 kts 327°
2026-04-26 16:02 43.00321 -92.96153 34707 ft 455 kts 326°
2026-04-26 16:02 43.03091 -92.97979 34618 ft 443 kts 326°
2026-04-26 16:02 43.05861 -92.99820 34536 ft 445 kts 326°
2026-04-26 16:03 43.11498 -93.03594 34399 ft 452 kts 326°
2026-04-26 16:03 43.17164 -93.07372 34249 ft 452 kts 326°
2026-04-26 16:04 43.22814 -93.11141 33960 ft 452 kts 326°
2026-04-26 16:04 43.25646 -93.13036 33610 ft 453 kts 326°
2026-04-26 16:04 43.28469 -93.14925 33172 ft 450 kts 326°
2026-04-26 16:04 43.31209 -93.16758 32695 ft 446 kts 326°
2026-04-26 16:05 43.34020 -93.18640 32174 ft 442 kts 326°
2026-04-26 16:05 43.36770 -93.20484 31648 ft 438 kts 326°
2026-04-26 16:05 43.39498 -93.22318 31113 ft 434 kts 327°
2026-04-26 16:05 43.42197 -93.24134 30577 ft 430 kts 327°
2026-04-26 16:06 43.44869 -93.25933 30043 ft 426 kts 327°
2026-04-26 16:06 43.47565 -93.27621 29451 ft 428 kts 331°
2026-04-26 16:06 43.50479 -93.28645 28822 ft 437 kts 343°
2026-04-26 16:06 43.53525 -93.28886 28341 ft 440 kts 353°
2026-04-26 16:07 43.56579 -93.28701 27841 ft 438 kts 356°
2026-04-26 16:07 43.59617 -93.28382 27275 ft 437 kts 358°
2026-04-26 16:07 43.62640 -93.28039 26695 ft 435 kts 358°
2026-04-26 16:07 43.65650 -93.27708 26139 ft 432 kts 358°
2026-04-26 16:08 43.68632 -93.27397 25608 ft 428 kts 358°
2026-04-26 16:08 43.70607 -93.27197 25255 ft 426 kts 358°
2026-04-26 16:08 43.74507 -93.26814 24553 ft 422 kts 358°
2026-04-26 16:08 43.77424 -93.26532 24025 ft 419 kts 358°
2026-04-26 16:09 43.80324 -93.26253 23498 ft 416 kts 358°
2026-04-26 16:09 43.83221 -93.25975 22970 ft 414 kts 358°
2026-04-26 16:09 43.86092 -93.25700 22444 ft 411 kts 358°
2026-04-26 16:09 43.88934 -93.25427 21921 ft 409 kts 358°
2026-04-26 16:10 43.91772 -93.25154 21391 ft 406 kts 358°
2026-04-26 16:10 43.94560 -93.24882 20818 ft 395 kts 358°
2026-04-26 16:10 43.97248 -93.24610 20350 ft 382 kts 359°
2026-04-26 16:10 43.99859 -93.24332 19900 ft 371 kts 359°
2026-04-26 16:11 44.02407 -93.24057 19443 ft 364 kts 359°
2026-04-26 16:11 44.04926 -93.23789 18998 ft 363 kts 359°
2026-04-26 16:11 44.07468 -93.23524 18547 ft 369 kts 359°
2026-04-26 16:11 44.09996 -93.23255 18079 ft 368 kts 359°
2026-04-26 16:12 44.12535 -93.22982 17607 ft 364 kts 359°
2026-04-26 16:12 44.15052 -93.22712 17208 ft 361 kts 359°
2026-04-26 16:12 44.20073 -93.22186 16360 ft 360 kts 359°
2026-04-26 16:13 44.22568 -93.21958 15917 ft 358 kts 358°
2026-04-26 16:13 44.25039 -93.21739 15480 ft 356 kts 358°
2026-04-26 16:13 44.27516 -93.21517 15037 ft 355 kts 358°
2026-04-26 16:13 44.29972 -93.21305 14599 ft 351 kts 358°
2026-04-26 16:14 44.32373 -93.21113 14155 ft 340 kts 358°
2026-04-26 16:14 44.34697 -93.20929 13736 ft 328 kts 358°
2026-04-26 16:14 44.39115 -93.20669 12946 ft 306 kts 355°
2026-04-26 16:15 44.41187 -93.20674 12672 ft 289 kts 353°
2026-04-26 16:15 44.43147 -93.20689 12440 ft 287 kts 353°
2026-04-26 16:15 44.45194 -93.20711 12197 ft 296 kts 353°
2026-04-26 16:16 44.49323 -93.20729 11662 ft 297 kts 354°
2026-04-26 16:16 44.51383 -93.20730 11410 ft 289 kts 354°
2026-04-26 16:16 44.52690 -93.20726 11320 ft 283 kts 354°
2026-04-26 16:16 44.54710 -93.20732 11043 ft 294 kts 354°
2026-04-26 16:17 44.56755 -93.20731 10737 ft 293 kts 354°
2026-04-26 16:17 44.58792 -93.20731 10426 ft 293 kts 354°
2026-04-26 16:17 44.60830 -93.20858 10120 ft 292 kts 350°
2026-04-26 16:17 44.62856 -93.21108 9826 ft 293 kts 348°
2026-04-26 16:18 44.64890 -93.21375 9558 ft 292 kts 348°
2026-04-26 16:18 44.68899 -93.22186 8914 ft 284 kts 337°
2026-04-26 16:19 44.72254 -93.24700 8575 ft 271 kts 322°
2026-04-26 16:19 44.73869 -93.26063 8381 ft 271 kts 321°
2026-04-26 16:19 44.77098 -93.28828 8045 ft 271 kts 320°
2026-04-26 16:20 44.78705 -93.30212 8025 ft 271 kts 320°
2026-04-26 16:20 44.81251 -93.33803 8047 ft 255 kts 298°
2026-04-26 16:20 44.82240 -93.35878 8037 ft 253 kts 295°
2026-04-26 16:21 44.83020 -93.37966 7833 ft 236 kts 288°
2026-04-26 16:21 44.83696 -93.40018 7665 ft 222 kts 285°
2026-04-26 16:21 44.84316 -93.41972 7562 ft 222 kts 284°
2026-04-26 16:21 44.84951 -93.43984 7476 ft 226 kts 284°
2026-04-26 16:22 44.85591 -93.46002 7393 ft 226 kts 285°
2026-04-26 16:22 44.86233 -93.48032 7309 ft 226 kts 285°
2026-04-26 16:22 44.86874 -93.50051 7231 ft 226 kts 285°
2026-04-26 16:22 44.87515 -93.52074 7141 ft 226 kts 284°
2026-04-26 16:23 44.88157 -93.54088 7056 ft 226 kts 285°
2026-04-26 16:23 44.88796 -93.56102 7022 ft 225 kts 285°
2026-04-26 16:23 44.89428 -93.58106 7009 ft 225 kts 284°
2026-04-26 16:23 44.90071 -93.60144 7006 ft 226 kts 284°
2026-04-26 16:24 44.90703 -93.62144 7000 ft 226 kts 285°
2026-04-26 16:24 44.91366 -93.64179 6928 ft 226 kts 286°
2026-04-26 16:24 44.92419 -93.65850 6595 ft 232 kts 309°
2026-04-26 16:24 44.93903 -93.66574 6446 ft 231 kts 338°
2026-04-26 16:25 44.95490 -93.66259 6343 ft 234 kts
2026-04-26 16:25 44.96847 -93.64985 6270 ft 237 kts 39°
2026-04-26 16:25 44.97702 -93.63013 6215 ft 237 kts 68°
2026-04-26 16:25 44.98283 -93.60858 6237 ft 234 kts 75°
2026-04-26 16:26 44.98578 -93.58639 5837 ft 228 kts 94°
2026-04-26 16:26 44.98338 -93.56488 5716 ft 217 kts 108°
2026-04-26 16:26 44.98103 -93.54412 5464 ft 210 kts 108°
2026-04-26 16:26 44.97900 -93.52392 5183 ft 204 kts 107°
2026-04-26 16:27 44.97732 -93.50439 4942 ft 198 kts 106°
2026-04-26 16:27 44.97584 -93.48513 4694 ft 195 kts 105°
2026-04-26 16:27 44.97452 -93.46624 4454 ft 192 kts 104°
2026-04-26 16:27 44.97332 -93.44764 4301 ft 189 kts 103°
2026-04-26 16:28 44.97079 -93.42975 4027 ft 183 kts 111°
2026-04-26 16:28 44.96561 -93.41400 3779 ft 175 kts 121°
2026-04-26 16:28 44.95968 -93.39929 3531 ft 168 kts 125°
2026-04-26 16:28 44.95349 -93.38553 3289 ft 162 kts 127°
2026-04-26 16:29 44.94749 -93.37233 3076 ft 158 kts 127°
2026-04-26 16:29 44.94172 -93.35930 2873 ft 156 kts 126°
2026-04-26 16:29 44.93610 -93.34609 2667 ft 155 kts 124°
2026-04-26 16:29 44.93060 -93.33296 2459 ft 155 kts 124°
2026-04-26 16:30 44.92651 -93.32339 2308 ft 156 kts 124°
2026-04-26 16:30 44.92107 -93.31103 2114 ft 159 kts 123°
2026-04-26 16:30 44.91527 -93.29771 1905 ft 162 kts 123°
2026-04-26 16:30 44.90947 -93.28426 1688 ft 158 kts 122°
2026-04-26 16:31 44.90416 -93.27195 1484 ft 145 kts 122°
2026-04-26 16:31 44.89907 -93.26018 1304 ft 140 kts 122°
2026-04-26 16:31 44.89400 -93.24848 1113 ft 139 kts 122°
2026-04-26 16:31 44.88903 -93.23699 930 ft 136 kts 121°
2026-04-26 16:32 44.88436 -93.22584 855 ft 120 kts 121°
2026-04-26 16:32 44.88210 -93.22076 854 ft 68 kts 129°
2026-04-26 16:32 44.88071 -93.21775 854 ft 13 kts 114°
2026-04-26 16:32 44.88075 -93.21650 854 ft 7 kts 42°
2026-04-26 16:33 44.88081 -93.21644 854 ft 0 kts 39°
2026-04-26 16:33 44.88096 -93.21610 854 ft 11 kts 71°
2026-04-26 16:34 44.88101 -93.21465 854 ft 16 kts 95°
2026-04-26 16:34 44.88077 -93.21386 854 ft 5 kts 120°
2026-04-26 16:34 44.88068 -93.21325 854 ft 7 kts 74°
2026-04-26 16:34 44.88100 -93.21280 854 ft 5 kts 35°
2026-04-26 16:35 44.88115 -93.21266 854 ft 3 kts 33°
2026-04-26 16:35 44.88124 -93.21257 854 ft 2 kts 32°
2026-04-26 16:35 44.88152 -93.21234 854 ft 8 kts 31°
2026-04-26 16:35 44.88127 -93.21255 854 ft 0 kts 32°